Lapse_Rate
6.8 6.9 6.9 7.3 7.6 8.1 7.9 7.9 7.6 7.1 6.5 6.8 7.0 7.5 7.4 7.0 7.0 7.3 7.1 6.9 6.2 6.1 5.9 6.1 6.1 5.8 5.8 5.6 5.4 5.4 5.3 5.2 5.1 5.0 5.2 5.3 5.4 5.5 5.6 5.8 5.9 6.0 6.0 6.0
6.9 7.0 7.5 7.7 7.7 7.6 7.7 8.0 7.6 7.2 6.9 6.8 6.9 6.9 7.5 7.2 7.3 7.2 7.0 7.0 6.7 5.7 5.5 6.0 6.1 5.9 5.8 5.5 5.4 5.3 5.4 5.4 5.3 5.4 5.5 5.6 5.6 5.8 5.9 6.0 6.1 6.1 6.0 5.8
7.7 7.9 7.6 7.4 7.1 7.4 7.7 7.8 7.7 7.2 7.0 6.8 6.3 7.3 8.6 7.6 7.4 7.0 6.8 6.9 6.8 5.9 5.4 5.2 6.0 5.8 5.7 5.5 5.5 5.5 5.6 5.6 5.7 5.7 5.8 5.8 5.9 5.9 5.9 6.0 6.0 5.9 5.6 5.5
8.0 7.4 7.5 7.2 7.3 7.4 7.9 7.4 7.4 7.2 7.2 7.2 7.3 8.0 8.0 7.0 6.6 6.2 6.3 6.9 6.9 6.7 5.8 5.1 5.8 5.8 5.7 5.6 5.6 5.7 5.7 5.8 5.8 5.9 6.0 6.0 6.1 6.0 5.8 6.0 5.7 5.6 5.5 5.5
7.8 7.5 7.5 7.0 7.5 7.3 7.9 7.9 7.5 7.2 7.3 7.5 7.9 7.3 8.1 7.3 6.8 6.3 6.7 6.9 7.0 7.0 6.7 6.2 6.2 6.1 5.8 5.7 5.7 5.8 5.8 5.8 5.9 6.1 6.3 6.2 6.2 5.9 5.8 5.6 5.6 5.6 5.5 5.5
7.3 7.4 7.3 7.3 7.4 7.5 7.8 7.7 7.5 7.4 7.3 7.5 8.1 7.6 8.5 7.1 6.6 6.2 6.7 6.9 7.0 7.2 7.1 6.3 6.2 6.1 6.0 5.9 5.9 6.0 5.9 6.0 6.1 6.2 6.2 6.2 5.9 5.8 5.7 5.7 5.7 5.8 5.7 5.5
7.4 7.1 7.6 7.5 7.6 7.5 7.5 7.6 8.4 8.2 7.8 8.6 7.1 7.2 7.8 6.6 6.9 6.7 6.7 6.9 7.0 7.2 7.1 6.8 6.5 6.3 6.2 6.1 6.1 6.1 6.2 6.3 6.2 6.2 6.1 5.9 6.0 6.0 5.8 5.8 5.7 5.6 5.6 5.6
8.2 7.5 7.2 7.4 7.3 7.6 7.6 7.8 8.5 8.7 9.5 9.6 7.3 7.8 7.1 7.0 6.9 6.9 6.9 6.9 6.9 6.8 6.7 6.6 6.6 6.5 6.4 6.3 6.3 6.5 6.6 6.6 6.3 6.2 6.2 6.2 6.1 6.1 6.0 5.9 5.9 5.8 5.8 5.8
8.8 7.4 7.4 7.5 7.6 7.5 7.1 7.4 7.6 7.9 8.0 8.1 8.6 7.1 7.0 7.0 6.9 6.8 6.8 6.8 6.7 6.7 6.7 6.7 6.7 6.7 6.7 6.8 6.9 6.9 6.7 6.6 6.5 6.5 6.4 6.2 6.2 6.3 6.3 6.2 6.1 6.0 6.0 6.0
8.1 7.4 7.1 7.4 7.3 7.2 7.2 7.2 7.4 7.5 8.3 8.5 9.3 8.6 8.1 6.6 6.3 6.7 6.7 6.7 6.7 6.7 6.6 6.6 6.6 6.7 6.8 6.8 6.8 6.8 6.7 6.7 6.6 6.6 6.6 6.5 6.4 6.4 6.2 6.0 6.0 6.1 6.2 6.1
7.9 7.9 7.0 7.0 7.0 7.3 6.9 7.0 7.1 7.4 7.7 8.6 8.9 9.2 7.3 6.8 6.3 6.0 6.7 6.8 6.7 6.8 6.8 6.9 7.0 6.9 6.8 6.7 6.7 6.7 6.8 6.8 6.7 6.8 6.7 6.6 6.5 6.3 6.2 6.2 6.1 6.0 5.9 5.8
7.6 7.6 7.5 7.2 7.1 7.1 7.1 7.1 7.2 7.6 7.9 7.7 7.8 7.9 7.3 6.7 7.1 6.8 7.0 6.9 6.8 6.9 6.9 6.8 6.6 6.5 6.4 6.4 6.4 6.4 6.5 6.6 6.6 6.6 6.5 6.4 6.4 6.4 6.2 6.0 5.8 5.8 5.8 5.7
7.3 7.4 7.6 6.8 6.9 7.0 6.9 6.8 6.8 6.9 6.9 7.5 8.1 8.1 7.3 7.2 7.2 7.0 6.9 6.9 6.9 6.7 6.5 6.3 6.1 6.1 6.1 6.2 6.3 6.4 6.4 6.4 6.4 6.3 6.3 6.3 6.2 6.0 5.9 5.8 5.8 5.8 5.7 5.7
7.2 7.2 7.5 7.9 7.2 7.2 6.9 7.1 7.1 6.8 7.4 7.8 7.9 7.8 7.2 7.1 7.0 6.8 6.6 6.4 6.3 6.4 6.3 6.1 6.0 6.0 6.0 6.0 6.1 6.2 6.2 6.2 6.3 6.4 6.3 6.1 6.0 5.9 5.8 5.8 5.8 5.7 5.7 5.6
7.0 7.1 7.2 7.2 7.4 7.3 7.0 6.7 6.9 6.7 7.2 7.4 7.9 7.2 7.4 6.5 6.1 5.8 6.3 6.4 6.2 5.9 5.9 6.0 5.8 5.7 5.7 5.8 6.0 6.1 6.2 6.2 6.2 6.1 6.1 6.0 6.0 5.9 5.8 5.8 5.7 5.6 5.6 5.5
7.1 6.9 7.1 6.9 7.3 7.2 7.1 7.1 6.7 6.6 6.6 6.7 6.8 6.6 6.6 6.3 6.3 6.3 6.1 6.1 6.0 5.6 5.8 5.8 5.7 5.7 5.7 5.8 6.0 6.1 6.2 6.2 6.3 6.3 6.1 6.0 5.8 5.8 5.7 5.6 5.5 5.5 5.7 5.9
7.1 6.9 6.8 7.4 7.1 6.8 6.9 7.0 6.8 6.5 6.6 6.6 6.5 6.6 6.5 6.6 6.4 6.2 6.0 6.1 5.9 5.9 5.9 5.8 5.7 5.7 5.7 5.9 6.1 6.2 6.2 6.3 6.2 6.2 6.1 5.9 5.8 5.7 5.6 5.5 5.6 5.8 6.0 6.2
7.1 6.7 6.7 6.9 6.5 7.2 7.3 7.3 7.3 6.9 7.0 6.8 6.5 6.5 6.4 6.3 6.1 5.8 5.9 6.2 5.8 6.0 5.9 5.8 5.7 5.8 5.9 6.0 6.2 6.2 6.2 6.2 6.2 6.1 6.0 5.8 5.7 5.7 5.8 6.0 6.2 6.5 6.6 6.6
7.0 6.4 6.5 6.5 7.0 7.5 7.0 7.2 6.9 6.8 6.5 6.6 6.5 6.5 6.2 6.1 6.1 5.7 5.9 6.0 5.9 5.8 5.7 5.7 5.8 5.9 6.0 6.0 6.2 6.3 6.2 6.1 6.0 6.0 5.9 5.9 6.0 6.1 6.4 6.6 6.5 6.7 6.7 6.5
6.9 6.7 6.4 6.3 6.3 6.6 6.9 6.9 6.8 6.6 6.4 6.6 6.6 6.4 6.1 6.0 5.7 5.1 5.5 5.5 5.5 5.6 5.7 5.8 5.8 5.9 6.0 6.2 6.3 6.3 6.2 6.2 6.2 6.1 6.2 6.6 6.7 6.5 6.7 6.8 6.8 6.8 6.5 6.2
6.8 6.4 6.1 6.2 6.0 6.5 6.6 6.7 6.8 6.4 6.4 6.2 6.1 6.0 5.8 5.5 5.7 5.7 5.6 5.6 5.6 5.6 5.7 5.7 5.9 6.0 6.3 6.4 6.4 6.4 6.3 6.3 6.5 6.8 6.9 6.8 7.0 7.0 7.1 7.0 6.7 6.3 6.1 5.8
6.8 6.4 6.3 6.2 5.9 6.2 6.8 6.5 6.5 6.4 6.2 6.1 6.0 6.0 5.8 5.6 5.5 5.5 5.5 5.4 5.6 5.8 5.8 5.8 6.0 6.2 6.4 6.4 6.5 6.4 6.6 7.0 7.0 7.1 7.1 7.2 7.3 7.2 6.9 6.6 6.3 6.0 5.7 5.6
6.6 6.5 6.7 6.5 6.2 6.5 6.2 6.2 6.1 5.9 5.9 6.0 5.9 6.0 5.8 5.5 5.5 5.4 5.4 5.5 5.5 5.6 5.6 5.8 6.2 6.4 6.4 6.4 6.5 6.8 7.2 7.2 7.3 7.2 7.3 7.4 7.2 7.0 6.6 6.3 6.1 5.9 5.6 5.3
6.9 6.7 6.4 6.3 6.4 6.1 6.1 6.0 5.9 6.1 5.8 5.9 5.8 5.7 5.5 5.5 5.5 5.2 5.3 5.5 5.4 5.4 5.8 6.1 6.4 6.4 6.4 6.5 6.9 7.2 7.4 7.5 7.4 7.3 7.3 7.1 7.0 6.8 6.5 6.1 5.8 5.5 5.2 5.1
6.3 6.3 6.0 6.1 6.1 6.3 6.1 6.2 6.1 5.9 5.8 5.9 5.6 5.6 5.6 5.4 5.2 5.4 5.4 5.4 5.4 5.6 5.9 6.2 6.3 6.3 6.7 7.0 7.1 7.4 7.6 7.5 7.3 7.2 7.1 7.0 6.7 6.5 6.3 6.0 5.5 5.1 4.9 4.7
6.7 6.0 5.9 5.5 5.9 6.0 5.9 6.0 6.0 5.9 5.8 5.8 5.6 5.6 5.5 5.4 5.3 5.3 5.4 5.3 5.5 5.7 6.1 6.3 6.5 6.8 7.0 7.1 7.3 7.5 7.6 7.3 7.2 7.1 7.0 6.8 6.5 6.3 6.0 5.8 5.7 5.0 4.8 4.9
Wind_Speed
14 12 15 19 16 16 6 10 13 3 3 4 12 13 11 8 10 9 11 12 12 13 13 12 13 12 11 10 10 11 10 10 7 5 5 5 4 5 3 4 3 3 2 2
9 14 16 14 17 13 11 11 11 5 3 2 14 20 15 5 4 5 8 11 13 13 14 15 14 13 13 11 10 10 10 9 7 5 5 4 4 4 4 5 5 5 5 4
14 7 3 7 9 12 12 12 9 7 4 6 14 15 16 7 4 2 2 5 10 12 14 15 15 14 12 11 10 10 10 10 8 8 4 3 2 2 3 5 5 7 6 6
15 7 6 9 14 12 14 6 4 6 4 7 5 8 8 8 5 2 6 6 3 7 11 13 14 14 13 11 10 10 10 10 9 8 7 9 7 7 6 2 3 4 8 8
6 8 10 10 3 10 4 6 5 5 7 6 12 5 1 5 5 5 8 8 6 2 8 12 13 13 12 10 9 9 9 9 9 9 9 7 8 7 6 5 6 7 8 10
9 6 3 3 4 5 9 8 6 4 5 8 11 7 3 3 6 5 6 9 7 4 5 9 9 9 9 8 8 7 10 10 9 9 10 9 10 10 8 7 6 6 6 6
10 6 5 8 9 5 7 7 5 6 5 5 4 4 5 6 5 5 6 9 9 8 6 6 8 6 5 7 8 8 9 10 10 10 9 10 8 9 9 8 6 8 7 7
10 7 8 3 3 4 10 7 7 6 6 1 5 6 5 7 6 8 8 9 10 10 8 6 4 4 4 5 6 8 8 9 9 7 7 6 6 5 5 6 6 7 7 8
8 6 5 4 1 4 6 6 4 7 7 8 8 7 7 7 7 8 9 9 9 9 10 10 8 7 6 6 5 3 3 4 4 5 5 6 5 6 6 8 8 7 10 9
3 5 1 3 2 3 4 2 3 4 4 7 6 4 3 11 9 9 9 10 9 9 9 9 9 8 7 7 5 5 3 1 1 3 4 4 6 7 7 8 10 11 11 12
3 2 5 4 7 4 5 5 4 4 3 5 6 4 7 10 10 8 8 8 8 8 7 7 7 6 5 4 3 2 2 2 3 3 4 6 7 8 9 9 11 12 12 14
3 4 5 4 3 2 4 4 6 5 5 4 3 1 1 9 7 7 8 7 6 6 5 5 4 3 3 4 4 4 5 5 4 5 6 8 8 9 10 11 13 13 14 14
1 4 5 5 4 3 5 8 7 3 2 9 6 2 5 6 7 7 8 7 6 5 3 2 4 6 7 8 7 7 7 6 6 7 8 9 9 10 12 13 13 14 15 15
4 2 5 4 5 3 5 8 9 10 6 8 9 5 9 8 8 8 6 6 6 3 1 3 6 8 9 9 9 9 8 8 5 6 8 10 11 11 12 13 13 14 15 16
3 3 2 2 2 2 4 5 9 13 13 10 8 5 5 4 7 7 7 6 5 4 2 5 7 9 10 10 10 10 9 5 6 7 10 11 11 12 13 13 14 15 15 15
1 1 1 3 1 4 7 9 10 11 13 13 12 14 8 4 2 5 6 6 6 4 5 8 9 10 10 11 10 9 6 6 6 10 11 11 12 13 13 14 15 15 16 16
3 2 2 1 0 5 10 11 13 9 7 8 9 4 4 4 5 6 5 5 3 2 6 8 10 9 10 9 7 7 7 8 10 11 12 12 12 13 14 15 16 15 16 16
2 2 0 2 3 4 4 5 4 7 4 8 3 2 2 2 4 3 3 3 1 5 7 8 8 9 8 7 6 7 8 10 10 11 12 12 13 14 15 15 16 16 15 15
3 2 2 3 5 7 7 3 3 4 1 7 8 4 5 4 3 8 5 4 3 4 6 7 8 9 7 6 6 8 9 10 10 12 12 13 13 15 15 15 16 15 14 14
1 3 4 2 2 3 4 5 3 2 4 2 7 8 8 6 5 7 5 3 4 5 6 7 9 8 8 7 7 9 10 11 11 11 12 13 14 15 16 15 15 13 13 13
4 3 8 6 5 5 9 8 5 3 3 6 4 5 6 6 3 5 2 3 4 6 8 8 9 9 9 8 9 10 11 12 11 11 12 13 14 15 15 14 13 13 12 14
6 6 4 5 5 5 10 7 4 4 3 4 3 4 4 3 3 3 2 4 6 7 9 9 9 9 10 10 9 11 12 11 11 11 13 14 14 12 12 14 13 14 12 11
4 4 1 6 2 2 11 4 5 1 2 4 5 5 4 4 3 1 2 4 5 7 8 9 9 11 10 10 9 11 11 10 11 12 13 14 14 13 13 13 14 11 11 9
5 2 3 2 3 8 6 9 5 4 2 3 4 7 5 5 3 1 3 4 6 7 8 8 10 11 12 11 11 10 10 10 11 12 13 13 13 13 12 10 9 9 9 9
3 8 5 8 11 5 10 9 8 6 5 7 7 7 6 4 2 3 5 6 7 9 9 9 10 11 12 11 11 10 9 9 10 12 12 12 11 12 11 11 9 8 9 11
7 7 5 5 5 5 4 4 9 9 9 9 8 7 5 3 2 4 6 7 9 10 11 11 11 12 13 12 11 9 8 8 10 11 10 10 9 9 9 9 10 15 17 21
Wind_Direction
196 207 207 202 216 231 267 225 227 220 51 280 270 278 285 257 201 244 260 253 228 212 197 188 184 181 175 176 177 173 174 170 164 179 176 190 204 196 203 199 214 222 283 270
171 218 211 218 215 227 238 226 215 194 138 284 318 287 281 324 307 314 292 259 244 211 206 185 186 187 182 185 187 182 182 183 178 198 203 218 210 217 215 198 223 238 244 269
199 172 135 179 194 211 216 242 221 231 144 197 262 265 246 160 159 140 339 287 279 231 207 186 189 191 189 192 191 198 192 190 201 209 215 239 267 303 242 235 231 228 242 266
235 124 163 187 216 228 232 172 247 196 203 249 214 287 224 160 169 105 20 14 318 247 215 188 191 193 194 200 192 210 208 203 210 208 229 232 239 247 250 277 256 259 251 266
134 159 168 205 220 190 222 157 183 204 244 291 234 253 198 162 184 34 23 22 33 279 218 194 184 191 197 193 201 211 222 221 218 230 222 251 252 269 267 273 263 258 261 262
109 76 132 82 100 258 143 140 164 213 253 246 250 218 203 117 29 1 34 44 48 84 179 182 165 175 188 191 201 213 232 232 234 231 247 239 262 265 268 264 261 270 280 287
141 125 109 157 125 140 218 197 218 207 198 253 103 223 28 88 54 61 74 70 70 96 126 148 147 169 193 194 210 224 232 245 246 246 244 256 249 271 274 275 283 294 294 294
178 163 168 164 312 210 204 275 270 289 293 75 162 236 96 102 100 104 97 88 86 85 94 115 133 172 189 213 228 233 246 246 254 266 258 255 254 261 283 288 292 292 293 294
197 103 113 54 345 328 145 225 7 281 253 271 249 121 133 133 118 116 102 94 87 87 86 89 84 74 74 63 44 351 297 283 297 254 253 248 251 248 271 289 289 292 295 297
37 116 41 121 181 79 318 29 199 202 260 253 180 237 128 172 150 134 121 106 99 95 91 86 79 72 66 64 55 48 28 358 241 259 267 293 289 291 289 288 295 302 300 295
304 279 126 178 207 168 171 209 235 307 286 298 294 96 55 158 153 144 123 112 110 100 92 87 82 78 69 51 31 2 321 280 261 276 298 287 292 303 306 300 297 294 297 296
36 306 160 135 90 346 308 272 242 249 172 242 293 296 105 109 138 150 139 138 122 115 109 96 91 60 24 5 351 337 320 301 286 291 291 294 302 298 299 300 303 302 300 300
116 220 162 166 175 179 227 206 241 272 290 265 275 89 112 135 161 170 170 166 160 147 127 88 10 11 0 347 334 322 309 290 302 300 300 301 303 303 303 304 303 304 303 302
295 283 304 8 57 86 187 204 216 227 241 262 236 262 179 181 192 189 190 188 175 162 164 2 353 342 340 333 325 325 313 311 302 291 297 299 300 307 306 306 306 305 305 302
282 246 267 46 22 325 298 224 212 227 247 274 294 303 320 240 218 219 200 198 200 213 266 356 344 339 337 333 331 324 329 315 300 298 296 301 310 308 306 307 306 305 303 301
199 120 296 244 233 277 270 256 247 241 253 266 279 282 320 315 176 186 200 204 232 257 2 346 340 333 333 330 328 324 301 297 300 296 307 312 309 309 309 308 307 305 303 302
188 167 224 205 69 288 264 247 231 237 244 253 257 21 104 132 184 201 199 212 258 344 339 339 335 333 327 325 322 307 315 313 311 312 310 309 312 313 312 310 307 307 305 305
177 197 249 308 271 246 75 51 3 212 257 226 230 193 218 211 206 205 209 267 39 360 340 333 328 325 323 318 303 306 310 309 306 309 309 314 316 313 311 309 308 306 307 309
341 210 200 253 240 308 161 190 181 204 304 220 232 196 196 172 215 222 121 75 28 352 337 327 327 322 318 306 303 303 304 306 308 308 314 319 315 310 310 308 308 308 314 311
212 270 246 167 254 252 72 143 162 183 251 147 184 194 188 177 249 100 108 33 10 350 331 325 324 315 304 304 308 302 301 307 307 320 318 312 311 308 308 309 311 307 310 302
172 198 222 218 241 270 120 146 169 231 62 147 187 190 190 211 33 95 61 28 3 340 334 332 315 314 309 305 304 301 303 306 323 317 312 310 306 309 310 308 311 318 306 304
186 175 203 211 214 244 145 138 220 84 105 148 180 163 184 118 100 77 34 356 345 337 333 326 317 312 312 309 302 300 305 318 322 314 307 306 310 314 309 315 320 314 306 306
228 240 296 205 239 107 185 47 90 107 161 186 178 146 149 145 132 114 306 327 334 333 330 329 324 314 304 302 308 301 308 317 314 308 307 314 315 312 319 330 319 311 315 309
230 161 237 336 178 218 208 213 187 196 224 158 166 149 161 161 172 276 315 321 323 326 323 322 320 318 315 314 309 304 310 314 310 308 314 316 314 323 328 326 309 314 310 309
20 152 230 252 263 214 239 237 214 201 191 153 147 152 156 158 186 286 311 320 315 313 310 316 313 316 316 313 304 306 312 313 309 312 314 316 319 330 325 311 305 312 307 305
189 220 206 253 353 220 77 196 192 179 174 165 157 160 166 193 259 287 294 306 308 309 314 309 306 311 317 318 313 311 314 314 312 311 315 319 325 328 306 306 311 319 315 314